Regional Weather Roundup
Issued by NWS

Home | Current Version | Previous Version | Text Only | Print | Product List | Glossary Off
Versions: 1 2 3 4 5 6 7 8 9 10 11 12 13 14 15 16 17 18 19 20 21 22 23 24 25 26 27

000
ASUS45 KBOU 151510
RWRCO

WEATHER ROUNDUP FOR COLORADO
NATIONAL WEATHER SERVICE DENVER/BOULDER CO
800 AM MST FRI DEC 15 2017

NOTE: "FAIR" INDICATES FEW OR NO CLOUDS BELOW 12000 FEET WITH NO
SIGNIFICANT WEATHER AND/OR OBSTRUCTIONS TO VISIBILITY.

COZ001>005-013-030-031-151600-
...NORTHWEST COLORADO...

CITY           SKY/WX    TMP DP  RH WIND       PRES   REMARKS
CRAIG          FAIR       3  -2  79 CALM      30.31S
HAYDEN         FAIR      14   7  73 SE10      30.31S WCI   1
MEEKER         FAIR       9   4  80 CALM      30.32R
RABBIT EARS PA FAIR      14  10  85 W9G16     30.24R WCI   2
STEAMBOAT SPGS FAIR       8   6  90 CALM      30.31S
WALDEN         FAIR      14   5  67 S10       30.25S WCI   1
$$

COZ006>008-011-151600-
...WEST CENTRAL VALLEYS...

CITY           SKY/WX    TMP DP  RH WIND       PRES   REMARKS
GRAND JUNCTION FAIR      20  11  68 E6        30.37S WCI  12
MONTROSE       FAIR      15   8  73 S7        30.40R WCI   5
EAGLE          FAIR       4   0  83 E3        30.43S
RIFLE          FAIR      12   6  77 CALM      30.39S
DELTA          FAIR      18   7  64 NE5       30.39S WCI  11
NUCLA          FAIR      14   0  52 CALM      30.39S
$$

COZ017>023-064>068-151600-
...SOUTHWEST COLORADO...

CITY           SKY/WX    TMP DP  RH WIND       PRES   REMARKS
DURANGO        FAIR      12  10  92 NE3       30.32R
CORTEZ         FAIR      10  -1  61 E7        30.34R WCI  -1
PAGOSA SPRINGS FAIR      15   7  71 CALM      30.31R
TELLURIDE      FAIR      22 -13  20 SE5       30.33S WCI  16
WOLF CREEK PAS FAIR      21 -18  16 CALM      30.35S
$$

COZ009-010-012-014-032>034-037-058>063-151600-
...CENTRAL COLORADO...

CITY           SKY/WX    TMP DP  RH WIND       PRES   REMARKS
ASPEN          FAIR       9   1  70 S5        30.30F WCI   1
BUENA VISTA    FAIR       9  -1  64 CALM      30.23F
COPPER MTN     NOT AVBL
BERTHOUD PASS  FAIR      10  -2  56 N20G35    30.20R WCI  -8
COTTONWOOD PAS FAIR      32  -9  16 NW5       30.21S WCI  27
GUNNISON       FAIR       4  -2  76 NE3       30.39F
KREMMLING      FAIR       3  -2  78 CALM      30.39S
LEADVILLE      FAIR      13  -5  44 NE9       30.25S WCI   1
MONARCH PASS   FAIR      10  -6  48 SW28      30.33S WCI -11
SALIDA         FAIR      23   1  38 N9        30.30F WCI  13
SUNLIGHT       FAIR      18  -8  32 SW9       30.33S WCI   6
WILKERSON PASS FAIR      25  -9  22 NW15G29   30.19S WCI  12
$$

COZ069>075-151600-
...SAN LUIS VALLEY/SANGRE DE CRISTO MOUNTAINS...

CITY           SKY/WX    TMP DP  RH WIND       PRES   REMARKS
ALAMOSA        FAIR       4  -1  80 NE3       30.31S
DEL NORTE      FAIR      15   1  53 W13       30.30F WCI   1
LA VETA PASS   FAIR      14   3  62 SW30G36     N/A  WCI  -7
SAGUACHE       FAIR      14   5  67 E3        30.31S
$$

COZ035-036-038>040-151600-
...NORTHERN COLORADO FRONT RANGE...

CITY           SKY/WX    TMP DP  RH WIND       PRES   REMARKS
DENVER INTL AP FAIR      34   5  29 SW16      30.01F WCI  24
DMNS CITY PARK NOT AVBL
AURORA         PTCLDY    33   6  32 S10       30.03S WCI  24
FRONT RANGE AP PTCLDY    37   9  30 S14G22    30.02F
ERIE MUNI ARPT FAIR      17  14  89 CALM      30.08R
BOULDER MUN AP FAIR      27  16  63 CALM      30.01R
CENTENNIAL     FAIR      31  10  41 S9        30.03S WCI  23
BROOMFIELD     PTCLDY    37   9  30 SW8       30.02F
FORT COLLINS   FAIR      20  16  84 S3        30.01F
LONGMONT       FAIR      19  13  77 CALM      30.04R
$$

COZ041-046-047-076>085-087-088-151600-
...PIKES PEAK/PALMER DIVIDE AND SOUTHERN FOOTHILLS...

CITY           SKY/WX    TMP DP  RH WIND       PRES   REMARKS
COLO. SPRINGS  FAIR      25  10  53 N7        30.08F WCI  17
A. F. ACADEMY  FAIR      20   9  62 N7        30.08S WCI  11
SCHRIEVER AFB  FAIR      34   4  28 NW3       30.08F
CHEYENNE MTN   FAIR      37  -1  19 CALM      30.03S
ELLICOTT         N/A    N/A N/A N/A CALM      30.06
FALCON         FAIR      29   5  35 W8        30.09S WCI  21
FORT CARSON    FAIR      23  12  63 NW5       30.06F WCI  17
LIMON          FAIR      12   8  84 CALM      30.06S
MONUMENT HILL  FAIR      28   3  34 SW12      30.08F WCI  18
CANON CITY     FAIR      36   5  27 W24G32    30.09F
WALSENBURG     FAIR      41   1  19 W16G35    30.11S
TRINIDAD       FAIR      26  12  55 SW16      30.14S WCI  14
$$

COZ042>045-048>051-090-091-151600-
...NORTHEAST COLORADO...

CITY           SKY/WX    TMP DP  RH WIND       PRES   REMARKS
GREELEY ARPT   FAIR      12   6  77 CALM      30.03F
AKRON          FAIR      24  11  57 SW17      30.01S WCI  11
BURLINGTON     FAIR      24  17  74 W9        30.05F WCI  14
WRAY           FAIR      21  14  73 W10       30.03S WCI  10
YUMA           FAIR      23  12  63 W6        30.02S WCI  16
STERLING       FAIR      18  14  86 S12       30.02F WCI   5
HOLYOKE        FAIR      25  19  80 W10       30.00F WCI  15
FORT MORGAN    FAIR      14  11  89 W14       30.03F WCI  -1
$$

COZ086-089-092>099-151600-
...SOUTHEAST COLORADO...

CITY           SKY/WX    TMP DP  RH WIND       PRES   REMARKS
PUEBLO         FAIR      14  10  84 CALM      30.11F
LA JUNTA       FAIR      18  15  88 W8        30.13F WCI   8
LAMAR          FAIR      19  16  88 SW9       30.12F WCI   8
SPRINGFIELD      N/A     19  15  84 SW6       30.11F WCI  11
$$




USA.gov is the U.S. government's official web portal to all federal, state and local government web resources and services.